[[{"header":{"parameterUnit":"m.s-1","parameterCategory":1,"la1":30.2991,"la2":30.254,"lo1":-89.0895,"lo2":-89.0444,"dy":0.0017,"dx":0.0017,"nx":28,"ny":28,"refTime":"2024-05-18T21:00:00:Z","depth":0,"parameterNumber":2,"parameterNumberName":"U-component_of_WINDS"},"data":[0,0,0,0,0,0,0,0,0,0,0,0,0,0,0,0,0,0,0,0,0,0,0,0,0,0,0,0,0,0,0,0,0,0,0,0,0,0,0,0,0,0,0,0,0,0,0,0,0,0,0,0,0,0,0,0,0,0,3.1045,3.1047,0,3.1171,3.1172,3.1173,3.1153,3.115,3.1148,3.1146,3.1276,3.1281,3.1287,0,0,0,0,0,0,0,0,0,0,0,0,0,3.0789,3.0794,3.1045,3.1047,3.1048,3.117,3.1172,3.1174,3.1153,3.115,3.1148,3.1145,3.1274,3.1281,3.1287,0,0,0,0,0,0,0,0,0,0,0,0,0,3.0906,3.0795,3.1045,3.1053,3.1055,3.117,3.1172,3.1174,3.1154,3.115,3.1147,3.1144,3.1272,3.128,3.1288,3.1404,0,0,3.1313,3.1317,0,0,0,0,0,0,0,0,3.0899,3.0915,3.105,3.1052,3.1055,3.1143,3.1129,3.1251,3.1154,3.1116,3.1146,3.1142,3.1234,3.1245,3.1276,3.141,3.1416,3.1314,3.1319,3.1322,3.1325,0,0,0,0,0,0,0,3.0891,3.091,3.1095,3.1052,3.1055,3.105,3.1063,3.1152,3.1192,3.1119,3.1118,3.1133,3.1235,3.1268,3.1279,3.1418,3.1314,3.1321,3.1326,3.1329,3.1651,3.1655,0,0,0,0,0,0,3.0881,3.0903,3.1091,3.1099,3.0967,3.1057,3.1072,3.1118,3.1191,3.1199,3.1136,3.1132,3.1256,3.1269,3.1283,3.1422,3.1322,3.133,3.1335,3.1648,3.1652,3.1656,0,0,0,0,0,0,3.0875,3.0898,3.1086,3.1001,3.1024,3.1065,3.1117,3.1122,3.1155,3.1203,3.121,3.1162,3.1254,3.1272,3.1374,3.1426,3.1334,3.1341,3.1643,3.1649,3.1654,3.1701,0,0,0,0,0,0,3.0868,3.0896,3.094,3.1002,3.1029,3.1174,3.112,3.1127,3.1169,3.1165,3.123,3.1238,3.1253,3.1361,3.1382,3.1436,3.1348,3.1639,3.1646,3.1652,3.1695,3.1708,3.1719,0,0,0,0,0,3.0859,3.0949,3.0942,3.0965,3.1085,3.1177,3.1192,3.1207,3.1173,3.1218,3.1249,3.1236,3.1418,3.1372,3.1395,3.1452,3.1635,3.1644,3.1652,3.169,3.1705,3.1718,0,0,0,0,0,0,3.0893,3.0957,3.0951,3.1064,3.1115,3.1173,3.123,3.1223,3.1285,3.1279,3.1295,3.131,3.1413,3.1443,3.1391,3.1568,3.1522,3.1535,3.1543,3.1558,3.157,3.1559,3.1354,0,0,0,0,0,3.0914,3.0983,3.1036,3.113,3.1156,3.1189,3.1229,3.1236,3.129,3.1312,3.135,3.1403,3.1472,3.1517,3.1584,3.17,3.1713,3.1751,3.1763,3.1772,3.1782,3.1844,3.1861,3.1683,3.1683,3.1682,0,0,3.0958,3.1001,3.1044,3.1138,3.1179,3.1249,3.1207,3.1284,3.1337,3.1324,3.1421,3.1452,3.1512,3.1621,3.1671,3.1649,3.1835,3.1783,3.179,3.1795,3.1855,3.1871,3.1886,3.1688,3.1687,3.1686,0,0,3.1072,3.1113,3.1195,3.1236,3.1298,3.1319,3.1339,3.1398,3.1417,3.1516,3.1507,3.157,3.1689,3.1732,3.1769,3.19,3.1889,3.1921,3.1981,3.2041,3.2055,3.2068,3.2112,3.2128,3.1932,3.1932,3.1932,0,3.1118,3.1224,3.1238,3.1316,3.1357,3.1348,3.1431,3.1471,3.1551,3.158,3.1555,3.1703,3.1743,3.1861,3.1893,3.1924,3.1946,3.1913,3.2052,3.2065,3.2077,3.2119,3.2136,3.1935,3.1935,3.1935,3.1934,0,3.1277,3.135,3.141,3.1486,3.1534,3.1614,3.164,3.1688,3.1691,3.1714,3.1814,3.1862,3.1937,3.1966,3.197,3.2085,3.2069,3.2048,3.2002,3.2097,3.2137,3.2153,3.194,3.1939,3.1938,3.1937,0,0,3.1415,3.1498,3.152,3.1553,3.1621,3.1678,3.1758,3.183,3.1869,3.1926,3.1992,3.2093,3.2073,3.2116,3.2125,3.2178,3.2275,3.215,3.2152,3.217,3.2402,3.2415,3.2434,3.227,3.2273,3.2276,3.2396,0,3.1534,3.1674,3.1689,3.1813,3.188,3.1873,3.1942,3.1991,3.2015,3.2076,3.2104,3.2173,3.2144,3.2169,3.2222,3.2252,3.2322,3.2244,3.233,3.2333,3.2312,3.2455,3.247,3.2581,3.2412,3.2415,3.2417,0,3.1692,3.175,3.1881,3.1938,3.1966,3.2028,3.2095,3.2154,3.2209,3.2223,3.227,3.2272,3.2354,3.2306,3.2418,3.2365,3.2402,3.2422,3.2427,3.2433,3.2379,3.2463,3.2617,3.2633,3.2442,3.244,3.2438,0,3.1776,3.1889,3.1981,3.2011,3.208,3.2123,3.2154,3.2206,3.2248,3.2307,3.2334,3.2403,3.244,3.2493,3.2513,3.2477,3.2623,3.2578,3.2636,3.2635,3.2665,3.2662,3.2824,3.2693,3.2693,3.2692,3.2692,0,3.1906,3.1986,3.202,3.2076,3.2165,3.2182,3.2269,3.2298,3.2344,3.2406,3.2406,3.2463,3.2488,3.255,3.2567,3.2655,3.2673,3.2686,3.2689,3.2684,3.2682,3.2706,3.2698,3.2697,3.2696,3.2695,3.2694,0,3.2015,3.2041,3.214,3.2197,3.2214,3.2276,3.2325,3.2379,3.2403,3.2481,3.2501,3.2538,3.2611,3.2637,3.2726,3.2737,3.2839,3.2837,3.282,3.282,3.2876,3.2869,3.3057,3.3081,3.2936,3.2938,3.2939,0,3.2094,3.2155,3.2218,3.2259,3.2291,3.2358,3.24,3.242,3.2464,3.2531,3.2577,3.2649,3.2708,3.2824,3.2859,3.2927,3.2925,3.2986,3.2935,3.2928,3.2923,3.2918,3.2923,3.2995,3.2996,3.2998,3.2999,0,3.2232,3.2242,3.2303,3.2369,3.242,3.2473,3.2525,3.2558,3.2585,3.2636,3.2709,3.2755,3.2845,3.2916,3.2985,3.3017,3.3012,3.3015,3.3031,3.3026,3.3012,3.3018,3.2843,3.301,3.3009,3.3008,3.3007,3.3007,3.2327,3.238,3.2432,3.25,3.2541,3.2589,3.2642,3.2672,3.2734,3.2807,3.2816,3.2895,3.2948,3.304,3.3075,3.3137,3.312,3.3145,3.315,3.3156,3.3158,3.3005,3.315,3.315,3.315,3.3149,3.3149,0,3.2463,3.2496,3.2558,3.2629,3.2683,3.2674,3.273,3.2775,3.2844,3.2894,3.2951,3.3035,3.3104,3.3145,3.3214,3.3256,3.3255,3.3273,3.3268,3.3275,3.3171,3.3148,3.3272,3.3272,3.3272,3.3272,3.3272,3.3272,3.2539,3.2627,3.2643,3.2752,3.2784,3.2861,3.2893,3.2937,3.2977,3.307,3.3127,3.3153,3.3199,3.3271,3.3333,3.3344,3.3368,3.3387,3.3395,3.3296,3.3283,3.3271,3.325,3.3393,3.3393,3.3495,3.3495,3.3496]},{"header":{"parameterUnit":"m.s-1","parameterCategory":1,"la1":30.2991,"la2":30.254,"lo1":-89.0895,"lo2":-89.0444,"dy":0.0017,"dx":0.0017,"nx":28,"ny":28,"refTime":"2024-05-18T21:00:00:Z","depth":0,"parameterNumber":3,"parameterNumberName":"V-component_of_WINDS"},"data":[0,0,0,0,0,0,0,0,0,0,0,0,0,0,0,0,0,0,0,0,0,0,0,0,0,0,0,0,0,0,0,0,0,0,0,0,0,0,0,0,0,0,0,0,0,0,0,0,0,0,0,0,0,0,0,0,0,0,1.7196,1.7198,0,1.7304,1.7306,1.7307,1.7298,1.7297,1.7295,1.7294,1.7407,1.7411,1.7415,0,0,0,0,0,0,0,0,0,0,0,0,0,1.6985,1.6989,1.7196,1.7198,1.7199,1.7304,1.7306,1.7307,1.7299,1.7297,1.7295,1.7293,1.7405,1.741,1.7416,0,0,0,0,0,0,0,0,0,0,0,0,0,1.7083,1.699,1.7196,1.7207,1.721,1.7304,1.7306,1.7308,1.7299,1.7297,1.7294,1.7292,1.7403,1.741,1.7417,1.7507,0,0,1.7437,1.744,0,0,0,0,0,0,0,0,1.7077,1.7091,1.7204,1.7207,1.7209,1.7285,1.7272,1.7375,1.73,1.7265,1.7294,1.7291,1.7368,1.7378,1.7404,1.7513,1.7518,1.7438,1.7442,1.7445,1.7447,0,0,0,0,0,0,0,1.7071,1.7086,1.7239,1.7206,1.7209,1.7208,1.7219,1.7292,1.7329,1.7268,1.7268,1.728,1.7369,1.7397,1.7406,1.7519,1.7438,1.7444,1.7448,1.7451,1.7708,1.771,0,0,0,0,0,0,1.7061,1.7081,1.7236,1.7242,1.7136,1.7213,1.7226,1.7263,1.7328,1.7336,1.7282,1.728,1.7387,1.7398,1.741,1.752,1.7445,1.7451,1.7455,1.7705,1.7708,1.7711,0,0,0,0,0,0,1.7056,1.7075,1.7231,1.7161,1.7181,1.722,1.7262,1.7267,1.7295,1.7339,1.7346,1.7304,1.7385,1.7401,1.7483,1.7524,1.7454,1.7461,1.7702,1.7706,1.771,1.7742,0,0,0,0,0,0,1.705,1.7073,1.7108,1.7162,1.7185,1.7302,1.7264,1.7271,1.7306,1.7303,1.7361,1.7368,1.7384,1.7473,1.749,1.7532,1.7466,1.7698,1.7704,1.7708,1.7737,1.7747,1.7755,0,0,0,0,0,1.7043,1.7113,1.711,1.7129,1.7229,1.7304,1.7318,1.7334,1.7309,1.7345,1.7373,1.7367,1.7517,1.7481,1.75,1.7546,1.7696,1.7702,1.7708,1.7734,1.7745,1.7754,0,0,0,0,0,0,1.7064,1.7121,1.7117,1.7207,1.7251,1.7303,1.7348,1.7346,1.7398,1.7393,1.7412,1.7425,1.7508,1.7535,1.7495,1.7637,1.7603,1.7613,1.7616,1.7627,1.7636,1.7628,1.7471,0,0,0,0,0,1.7079,1.7135,1.7182,1.7257,1.7279,1.731,1.7343,1.7352,1.7398,1.7417,1.7451,1.7497,1.7555,1.7592,1.7648,1.7741,1.7753,1.7781,1.779,1.7797,1.7806,1.7857,1.787,1.7732,1.7732,1.7731,0,0,1.7111,1.7149,1.7183,1.7262,1.7297,1.7355,1.7325,1.7388,1.7432,1.7427,1.7506,1.7533,1.7586,1.7674,1.7714,1.7699,1.7846,1.7805,1.781,1.7815,1.7864,1.7877,1.7889,1.7736,1.7735,1.7734,0,0,1.7199,1.7233,1.7299,1.7334,1.7387,1.7407,1.7422,1.7475,1.7492,1.7572,1.7569,1.7621,1.772,1.7757,1.7789,1.789,1.7886,1.7907,1.7953,1.8002,1.8013,1.8023,1.8059,1.8071,1.7916,1.7916,1.7916,0,1.7232,1.7319,1.7333,1.7397,1.7431,1.7428,1.7495,1.7529,1.7597,1.7622,1.7603,1.7726,1.7761,1.7858,1.7882,1.7908,1.7927,1.7901,1.801,1.802,1.8029,1.8064,1.8077,1.7918,1.7918,1.7918,1.7918,0,1.7357,1.7417,1.7464,1.7529,1.7569,1.7634,1.7659,1.7697,1.7702,1.7724,1.7806,1.7847,1.7911,1.7934,1.794,1.8032,1.802,1.8006,1.7973,1.8045,1.8077,1.8091,1.7922,1.7921,1.792,1.7919,0,0,1.7463,1.7534,1.7551,1.758,1.7637,1.7684,1.7749,1.781,1.7843,1.789,1.7945,1.8028,1.8014,1.805,1.806,1.8104,1.818,1.8084,1.8085,1.81,1.8284,1.8295,1.831,1.8177,1.818,1.8182,1.8279,0,1.7556,1.767,1.7684,1.7785,1.7841,1.7838,1.7895,1.7936,1.7958,1.8009,1.8033,1.8092,1.8069,1.8091,1.8134,1.8162,1.8217,1.8155,1.8229,1.8232,1.8217,1.8327,1.8339,1.8429,1.8292,1.8294,1.8296,0,1.7681,1.773,1.7837,1.7885,1.7909,1.796,1.8016,1.8065,1.8112,1.8125,1.8164,1.8169,1.8236,1.8199,1.8292,1.8249,1.828,1.8298,1.8302,1.831,1.8269,1.8338,1.8458,1.8471,1.8316,1.8315,1.8313,0,1.7747,1.784,1.7916,1.7941,1.8,1.8035,1.8061,1.8106,1.8141,1.8191,1.8214,1.8272,1.8303,1.8348,1.8367,1.8339,1.8459,1.8424,1.8472,1.8471,1.8498,1.8496,1.8624,1.8517,1.8517,1.8517,1.8516,0,1.7851,1.7916,1.7946,1.7993,1.8065,1.8081,1.8153,1.8178,1.8218,1.8269,1.8271,1.8319,1.8342,1.8394,1.841,1.8484,1.8498,1.8511,1.8514,1.8511,1.8509,1.8532,1.8527,1.852,1.8519,1.8519,1.8518,0,1.7937,1.796,1.8042,1.8091,1.8104,1.8156,1.8198,1.8243,1.8264,1.8329,1.8345,1.8379,1.844,1.8463,1.8539,1.8549,1.8635,1.8633,1.8619,1.862,1.8667,1.8662,1.8814,1.8835,1.8714,1.8715,1.8716,0,1.8002,1.8052,1.8105,1.8139,1.8167,1.8222,1.8258,1.8275,1.8313,1.8369,1.8408,1.8468,1.8518,1.8616,1.8647,1.8705,1.8705,1.8754,1.8713,1.8708,1.8706,1.8703,1.8708,1.8762,1.8763,1.8764,1.8765,0,1.8114,1.8123,1.8174,1.8229,1.8272,1.8316,1.836,1.8388,1.8412,1.8454,1.8516,1.8554,1.863,1.8691,1.8749,1.8777,1.8776,1.8777,1.8791,1.8789,1.8778,1.8785,1.864,1.8774,1.8773,1.8772,1.8772,1.8771,1.8192,1.8236,1.828,1.8337,1.8371,1.8412,1.8456,1.8482,1.8534,1.8597,1.8604,1.8671,1.8716,1.8794,1.8824,1.8877,1.8864,1.8884,1.889,1.8895,1.8898,1.8769,1.8888,1.8887,1.8887,1.8887,1.8887,0,1.8305,1.8333,1.8385,1.8445,1.849,1.8483,1.853,1.8568,1.8627,1.8668,1.8717,1.8788,1.8846,1.8881,1.894,1.8975,1.8976,1.899,1.8988,1.8995,1.8906,1.8888,1.8989,1.8989,1.8989,1.8989,1.8989,1.8989,1.8369,1.8443,1.8456,1.8547,1.8575,1.8639,1.8667,1.8704,1.8737,1.8816,1.8865,1.8887,1.8926,1.8987,1.9041,1.9049,1.9071,1.9087,1.9094,1.9011,1.9001,1.8991,1.8974,1.9091,1.9091,1.9178,1.9179,1.918]}]]